Hourly Data Report for April 13, 2018

KUGAARUK CLIMATE
NUNAVUT
Current Station Operator: ECCC - MSC

68°32'15.060" N
89°47'47.020" W
15.80 m
2303094
71407
NBB

Download Data

Hourly Data (April 2018)
Hourly Data Report for April 13, 2018
TIME
LST
Temp Definition
°C
Dew Point Definition
°C
Rel Hum Definition
%
Precip. Amount Definition
mm

Wind Dir Definition
10's deg

Wind Spd Definition
km/h
Visibility Definition
km
Stn Press Definition
kPa
Hmdx Definition


Wind Chill Definition


Weather Definition


00:00 -26.2 -29.7 73 0.0 28 10   102.12   -35 LegendNANA
01:00 -26.9 -30.5 71 0.0 25 16   102.13   -38 LegendNANA
02:00 -26.3 -30.0 71 0.0 26 19   102.14   -38 LegendNANA
03:00 -26.6 -30.2 71 0.0 26 10   102.20   -35 LegendNANA
04:00 -26.5 -30.5 69 0.0 25 15   102.19   -37 LegendNANA
05:00 -25.3 -29.6 67 0.0 26 19   102.19   -37 LegendNANA
06:00 -24.2 -29.3 63 0.0 27 15   102.20   -34 LegendNANA
07:00 -22.5 -27.6 63 0.0 25 19   102.20   -33 LegendNANA
08:00 -21.1 -26.3 63 0.0 24 28   102.18   -34 LegendNANA
09:00 -19.5 -24.5 64 0.0 23 32   102.11   -32 LegendNANA
10:00 -18.0 -23.5 62 0.0 24 31   102.08   -30 LegendNANA
11:00 -16.3 -22.0 61 0.0 24 26   102.06   -27 LegendNANA
12:00 -15.6 -22.0 58 0.0 23 18   102.08   -24 LegendNANA
13:00 -16.1 -21.5 63 0.0 21 26   102.04   -27 LegendNANA
14:00 -15.1 -20.2 65 0.0 22 28   102.00   -26 LegendNANA
15:00 -14.7 -19.3 68 0.0 22 33   101.94   -26 LegendNANA
16:00 -14.5 -19.2 68 0.0 21 35   101.90   -26 LegendNANA
17:00 -14.8 -19.0 70 0.0 21 40   101.81   -27 LegendNANA
18:00 -14.4 -18.8 69 0.0 22 48   101.71   -28 LegendNANA
19:00 -14.3 -19.4 66 0.0 21 37   101.70   -26 LegendNANA
20:00 -14.1 -19.2 65 0.0 22 35   101.66   -26 LegendNANA
21:00 -14.3 -18.9 68 0.0 22 40   101.61   -27 LegendNANA
22:00 -14.4 -18.3 72 0.0 22 49   101.51   -28 LegendNANA
23:00 -14.4 -18.3 72 0.0 22 46   101.53   -27 LegendNANA

Notes on Data Quality.

Legend

  • E = Estimated
  • M = Missing
  • NA = Not Available*
  • [empty] = Indicates an unobserved value
Date modified: